VIR511K KJFK-EGLL

Flight info

Callsign VIR511K
Flight time N/A
Altitude 37000
Route GREKI DCT JUDDS DCT MARTN DCT EBONY N567B TUDEP/M083F370 NATT BEXET/N0480F370 DCT BOFUM Q37 MALUD Q38 NUGRA
Aircraft A346/H-SDE2E3FGHIJ3J4J5M1RWXY/LB1D1

Departure

Time 2026-05-08 03:01
Airport John F. Kennedy International Airport (KJFK)

Arrival

Time N/A
Airport London Heathrow Airport (EGLL)
Time Latitude Longitude Altitude Speed Heading
2026-05-08 02:42 40.63790 -73.78196 24 ft 0 kts 83°
2026-05-08 02:48 40.63789 -73.78216 29 ft 0 kts 83°
2026-05-08 02:49 40.63786 -73.78251 30 ft 0 kts 83°
2026-05-08 02:49 40.63782 -73.78293 30 ft 0 kts 83°
2026-05-08 02:49 40.63781 -73.78305 29 ft 0 kts 83°
2026-05-08 02:49 40.63781 -73.78304 29 ft 0 kts 83°
2026-05-08 02:50 40.63781 -73.78299 29 ft 1 kts 83°
2026-05-08 02:50 40.63782 -73.78297 29 ft 0 kts 83°
2026-05-08 02:50 40.63782 -73.78296 29 ft 0 kts 83°
2026-05-08 02:51 40.63779 -73.78328 30 ft 2 kts 83°
2026-05-08 02:51 40.63778 -73.78343 30 ft 0 kts 83°
2026-05-08 02:53 40.63778 -73.78342 24 ft 0 kts 83°
2026-05-08 02:53 40.63777 -73.78324 28 ft 3 kts 102°
2026-05-08 02:53 40.63755 -73.78288 26 ft 6 kts 151°
2026-05-08 02:54 40.63703 -73.78268 27 ft 8 kts 167°
2026-05-08 02:54 40.63646 -73.78257 28 ft 9 kts 173°
2026-05-08 02:54 40.63573 -73.78266 27 ft 11 kts 199°
2026-05-08 02:54 40.63530 -73.78258 26 ft 8 kts 156°
2026-05-08 02:55 40.63493 -73.78212 28 ft 5 kts 117°
2026-05-08 02:55 40.63499 -73.78224 28 ft 0 kts 122°
2026-05-08 02:55 40.63471 -73.78170 27 ft 10 kts 124°
2026-05-08 02:56 40.63428 -73.78082 28 ft 13 kts 121°
2026-05-08 02:56 40.63412 -73.77956 28 ft 16 kts 72°
2026-05-08 02:56 40.63504 -73.77829 28 ft 18 kts 33°
2026-05-08 02:56 40.63633 -73.77730 30 ft 21 kts 31°
2026-05-08 02:57 40.63766 -73.77625 28 ft 23 kts 31°
2026-05-08 02:57 40.63810 -73.77590 29 ft 23 kts 31°
2026-05-08 02:57 40.64198 -73.77285 28 ft 27 kts 31°
2026-05-08 02:58 40.64361 -73.77161 29 ft 21 kts 30°
2026-05-08 02:58 40.64452 -73.77022 29 ft 21 kts 34°
2026-05-08 02:58 40.64586 -73.76928 26 ft 22 kts 31°
2026-05-08 02:58 40.64703 -73.76836 26 ft 22 kts 30°
2026-05-08 02:59 40.64843 -73.76729 28 ft 24 kts 30°
2026-05-08 02:59 40.64992 -73.76612 27 ft 25 kts 30°
2026-05-08 02:59 40.65080 -73.76536 25 ft 11 kts 48°
2026-05-08 02:59 40.65077 -73.76431 28 ft 13 kts 112°
2026-05-08 03:00 40.65001 -73.76376 27 ft 14 kts 192°
2026-05-08 03:00 40.64911 -73.76444 25 ft 16 kts 211°
2026-05-08 03:00 40.64684 -73.76620 26 ft 75 kts 210°
2026-05-08 03:00 40.63997 -73.77156 28 ft 149 kts 210°
2026-05-08 03:01 40.62910 -73.77998 60 ft 204 kts 209°
2026-05-08 03:01 40.61668 -73.78977 816 ft 201 kts 211°
2026-05-08 03:01 40.60436 -73.79967 1421 ft 213 kts 211°
2026-05-08 03:01 40.59103 -73.81023 1947 ft 230 kts 211°
2026-05-08 03:02 40.57697 -73.82142 2486 ft 247 kts 214°
2026-05-08 03:02 40.56459 -73.83864 2981 ft 264 kts 247°
2026-05-08 03:02 40.56207 -73.86242 3624 ft 269 kts 283°